COMSATBW-2

Last updated on Sun Nov 16 2025 00:03:41 GMT+0000 (Coordinated Universal Time)

1 36582U 10021B 25319.35322574 .00000095 00000+0 00000+0 0 9991 2 36582 0.0815 88.0533 0003311 164.8287 302.1766 1.00271250 56814
UTC large
Height (km)
Speed (km/s)
/
Latitude / Longitude
Inclination (degrees)
Orbital Period (minutes)
Azimuth
Elevation
Range (km)
Doppler Factor

Next 0 passes for location: London (51.5072 / 0.1276)

Sorry there are no passes over London.